Tracking 18945 objects as of 21-Jan-2018
HD Live streaming from Space Station
objects crossing your sky now

COSMOS 1727

Track COSMOS 1727 now!
10-day predictions
COSMOS 1727 is classified as:


NORAD ID: 16510
Int'l Code: 1986-008A
Perigee: 962.4 km
Apogee: 1,019.7 km
Inclination: 82.9 °
Period: 104.8 minutes
Semi major axis: 7362 km
RCS: 1.5351 m2 (large)
Launch date: January 23, 1986
Source: Commonwealth of Independent States (former USSR) (CIS)
Launch site: PLESETSK MISSILE AND SPACE COMPLEX (PKMTR)
aabbcc
Your satellite tracking list
Your tracking list is empty




NASA's NSSDC Master Catalog

Two Line Element Set (TLE):
1 16510U 86008A   18020.61281181 +.00000006 +00000-0 -10437-4 0  9990
2 16510 082.9475 083.0754 0038940 147.4304 007.1871 13.74379043604076
Source of the keplerian elements: AFSPC